Location: Unspecified
(34.4950°S, 58.5160°W)
Time: 08:11:21
(UTC+00:00)

CZ-4 R/B - Pass Details

Date: 15 December 2025
Orbit: 493 x 541 km, 97.6° (Epoch: 18 January)

Event Time Altitude Azimuth Distance (km) Brightness Sun altitude
Rises 23:50:59 0° 155° (SSE) 2,695 5.0 -9.1°
Reaches altitude 10° 23:53:22 10° 141° (SE) 1,804 3.9 -9.5°
Maximum altitude 23:56:40 26° 83° (E) 1,081 2.3 -10.0°
Enters shadow 23:59:29 13° 30° (NNE) 1,633 3.2 -10.5°
